Location: Azul
(36.7830°S, 59.8500°W)
Time: 21:03:53
(UTC-03:00)

ISS - Pass Details

Date: 18 February 2020
Orbit: 415 x 422 km, 51.6° (Epoch: 27 February)

Event Time Altitude Azimuth Distance (km) Brightness Sun altitude
Rises 22:05:53 0° 253° (WSW) 2,383 1.2 -24.6°
Reaches altitude 10° 22:09:33 10° 212° (SSW) 1,521 0.0 -25.2°
Maximum altitude 22:10:23 11° 198° (SSW) 1,483 -0.3 -25.3°
Drops below altitude 10° 22:11:12 10° 184° (S) 1,522 -0.4 -25.5°
Enters shadow 22:13:09 - 158° (SSE) 1,881 -0.3 -25.8°
